Location: Poughquag
(41.6090°N, 73.6820°W)
Time: 12:09:48
(UTC-04:00)

Tiros 1 despin weight - Pass Details

Date: 29 May 2020
Orbit: 593 x 642 km, 48.2° (Epoch: 07 July)

Event Time Altitude Azimuth Distance (km) Brightness Sun altitude
Rises 10:30:52 0° 202° (SSW) 2,915 ? 54.3°
Reaches altitude 10° 10:33:34 10° 188° (S) 2,004 ? 54.8°
Maximum altitude 10:37:10 23° 136° (SE) 1,345 ? 55.4°
Drops below altitude 10° 10:40:45 10° 85° (E) 1,990 ? 56.0°
Sets 10:43:26 0° 70° (ENE) 2,890 ? 56.5°
